Location: Bovenkerk
(52.2915°N, 4.8336°E)
Time: 11:38:34
(UTC+00:00)

ATLAS 5 CENTAUR R/B - Pass Details

Date: 09 April 2020
Orbit: 543 x 1116 km, 63.4° (Epoch: 01 May)

Event Time Altitude Azimuth Distance (km) Brightness Sun altitude
Rises 19:59:23 0° 223° (SW) 2,752 5.0 -13.4°
Reaches altitude 10° 20:01:29 10° 223° (SW) 1,899 4.2 -13.7°
Maximum altitude 20:05:43 88° 135° (SE) 638 1.5 -14.2°
Drops below altitude 10° 20:10:37 10° 47° (NE) 2,178 4.2 -14.8°
Sets 20:13:10 0° 47° (NE) 3,196 5.1 -15.1°
